Precipitable_Water
0.95 0.92 0.87 0.85 0.87 0.88 0.88 0.88 0.89 0.84 0.82 0.82 0.86 0.84 0.82 0.79 0.82 0.81 0.74 0.93 0.96 1.02 0.93 0.84 0.79 0.75 0.73 0.62 0.63 0.63 0.37 0.28 0.32 0.34 0.37 0.45 0.40 0.45 0.49 0.43 0.47 0.51 0.49 0.54 0.60
0.94 0.90 0.88 0.86 0.86 0.87 0.87 0.86 0.86 0.84 0.79 0.82 0.81 0.76 0.76 0.81 0.78 0.80 0.99 0.98 0.98 0.95 0.83 0.74 0.64 0.64 0.56 0.55 0.55 0.47 0.34 0.33 0.43 0.42 0.36 0.39 0.37 0.36 0.36 0.35 0.34 0.34 0.42 0.51 0.56
0.87 0.81 0.80 0.83 0.86 0.89 0.89 0.86 0.89 0.86 0.82 0.81 0.74 0.73 0.79 0.85 0.69 0.78 1.05 1.08 1.00 0.99 0.84 0.79 0.67 0.58 0.47 0.50 0.45 0.44 0.32 0.40 0.38 0.38 0.37 0.33 0.31 0.37 0.32 0.27 0.32 0.34 0.39 0.43 0.46
0.76 0.72 0.71 0.74 0.81 0.87 0.87 0.87 0.87 0.86 0.86 0.79 0.73 0.72 0.84 0.82 0.44 0.91 0.98 0.94 0.90 0.87 0.76 0.66 0.57 0.47 0.42 0.36 0.45 0.32 0.39 0.38 0.33 0.36 0.34 0.30 0.33 0.28 0.29 0.27 0.35 0.38 0.41 0.42 0.42
0.70 0.68 0.67 0.73 0.78 0.80 0.83 0.85 0.86 0.84 0.82 0.77 0.75 0.79 0.79 0.63 0.61 0.92 0.87 0.82 0.76 0.71 0.61 0.54 0.45 0.43 0.35 0.37 0.38 0.33 0.34 0.36 0.35 0.34 0.34 0.35 0.31 0.29 0.28 0.33 0.37 0.40 0.40 0.42 0.46
0.70 0.67 0.65 0.68 0.71 0.72 0.74 0.79 0.81 0.82 0.81 0.85 0.80 0.82 0.72 0.50 0.82 0.81 0.77 0.72 0.66 0.60 0.54 0.51 0.44 0.43 0.36 0.34 0.33 0.35 0.32 0.30 0.34 0.33 0.33 0.28 0.26 0.27 0.30 0.37 0.35 0.34 0.34 0.40 0.43
0.69 0.67 0.65 0.66 0.67 0.66 0.69 0.76 0.78 0.80 0.80 0.84 0.87 0.83 0.60 0.57 0.73 0.66 0.66 0.57 0.58 0.54 0.45 0.46 0.46 0.39 0.39 0.31 0.37 0.32 0.28 0.32 0.30 0.25 0.22 0.25 0.19 0.22 0.31 0.31 0.28 0.30 0.31 0.36 0.42
0.70 0.68 0.65 0.64 0.66 0.64 0.64 0.73 0.75 0.76 0.80 0.83 0.88 0.78 0.50 0.72 0.66 0.59 0.57 0.52 0.53 0.51 0.48 0.48 0.48 0.42 0.37 0.37 0.33 0.31 0.32 0.22 0.21 0.20 0.22 0.22 0.15 0.20 0.26 0.22 0.19 0.21 0.24 0.29 0.39
0.70 0.67 0.67 0.63 0.65 0.60 0.62 0.68 0.71 0.78 0.79 0.85 0.80 0.73 0.47 0.64 0.54 0.54 0.55 0.48 0.48 0.49 0.51 0.48 0.45 0.39 0.38 0.28 0.25 0.29 0.18 0.16 0.16 0.19 0.21 0.20 0.15 0.18 0.17 0.17 0.21 0.27 0.31 0.36 0.39
0.69 0.65 0.65 0.64 0.64 0.58 0.61 0.66 0.67 0.72 0.72 0.74 0.72 0.52 0.50 0.45 0.48 0.50 0.55 0.49 0.43 0.42 0.43 0.42 0.38 0.35 0.35 0.27 0.14 0.15 0.14 0.14 0.15 0.18 0.18 0.16 0.13 0.13 0.15 0.21 0.23 0.28 0.38 0.41 0.45
0.71 0.68 0.66 0.64 0.62 0.57 0.57 0.60 0.50 0.52 0.49 0.43 0.46 0.42 0.40 0.47 0.51 0.47 0.46 0.46 0.45 0.43 0.31 0.35 0.26 0.25 0.24 0.22 0.20 0.18 0.16 0.15 0.17 0.19 0.15 0.14 0.12 0.12 0.16 0.23 0.27 0.28 0.32 0.37 0.39
0.72 0.67 0.65 0.65 0.63 0.57 0.53 0.42 0.44 0.49 0.40 0.43 0.44 0.42 0.45 0.48 0.41 0.43 0.48 0.40 0.35 0.29 0.30 0.27 0.24 0.27 0.25 0.20 0.19 0.18 0.16 0.15 0.17 0.18 0.14 0.11 0.11 0.14 0.15 0.21 0.25 0.25 0.25 0.27 0.30
0.71 0.67 0.64 0.62 0.64 0.57 0.47 0.46 0.61 0.62 0.41 0.40 0.41 0.41 0.40 0.44 0.40 0.40 0.41 0.37 0.32 0.28 0.27 0.23 0.21 0.24 0.22 0.18 0.17 0.17 0.16 0.15 0.15 0.16 0.15 0.13 0.12 0.12 0.12 0.20 0.25 0.27 0.25 0.23 0.24
0.71 0.66 0.63 0.59 0.57 0.53 0.45 0.56 0.64 0.64 0.34 0.34 0.35 0.40 0.43 0.43 0.41 0.46 0.43 0.36 0.32 0.28 0.27 0.23 0.26 0.22 0.19 0.18 0.19 0.15 0.18 0.17 0.16 0.13 0.10 0.15 0.09 0.13 0.13 0.14 0.22 0.25 0.24 0.23 0.21
0.71 0.64 0.60 0.58 0.50 0.46 0.50 0.60 0.62 0.59 0.20 0.33 0.37 0.49 0.44 0.39 0.40 0.43 0.46 0.38 0.29 0.29 0.27 0.22 0.23 0.22 0.20 0.19 0.21 0.16 0.18 0.16 0.15 0.14 0.14 0.14 0.12 0.14 0.16 0.14 0.19 0.23 0.23 0.20 0.20
0.69 0.63 0.56 0.51 0.54 0.55 0.60 0.62 0.58 0.32 0.22 0.33 0.41 0.39 0.39 0.41 0.40 0.43 0.40 0.42 0.36 0.30 0.29 0.26 0.29 0.26 0.23 0.22 0.20 0.20 0.18 0.18 0.17 0.16 0.12 0.14 0.15 0.14 0.13 0.14 0.16 0.19 0.19 0.17 0.18
0.67 0.62 0.55 0.52 0.42 0.56 0.61 0.55 0.28 0.23 0.36 0.35 0.37 0.41 0.39 0.36 0.36 0.37 0.32 0.31 0.27 0.24 0.23 0.24 0.24 0.28 0.25 0.19 0.20 0.21 0.19 0.12 0.11 0.11 0.11 0.15 0.13 0.13 0.14 0.16 0.18 0.17 0.19 0.17 0.17
0.64 0.61 0.56 0.50 0.55 0.56 0.56 0.41 0.22 0.30 0.35 0.44 0.43 0.42 0.35 0.37 0.34 0.33 0.31 0.28 0.32 0.29 0.24 0.22 0.18 0.22 0.24 0.22 0.19 0.18 0.18 0.14 0.10 0.10 0.11 0.16 0.10 0.11 0.14 0.18 0.18 0.19 0.18 0.17 0.14
0.59 0.55 0.49 0.53 0.57 0.57 0.45 0.27 0.29 0.33 0.42 0.43 0.42 0.35 0.34 0.36 0.35 0.34 0.31 0.29 0.31 0.31 0.24 0.22 0.21 0.26 0.25 0.26 0.23 0.19 0.15 0.22 0.18 0.18 0.13 0.13 0.14 0.16 0.14 0.14 0.15 0.15 0.14 0.15 0.14
0.47 0.44 0.45 0.57 0.60 0.55 0.39 0.33 0.38 0.47 0.48 0.47 0.37 0.37 0.33 0.36 0.34 0.34 0.32 0.33 0.30 0.32 0.33 0.27 0.20 0.23 0.26 0.26 0.24 0.22 0.22 0.17 0.18 0.12 0.10 0.12 0.12 0.10 0.13 0.14 0.15 0.14 0.15 0.16 0.16
0.49 0.36 0.56 0.64 0.67 0.50 0.35 0.40 0.45 0.51 0.51 0.44 0.39 0.37 0.37 0.34 0.35 0.34 0.32 0.34 0.34 0.33 0.35 0.30 0.26 0.22 0.25 0.21 0.21 0.23 0.21 0.23 0.22 0.19 0.13 0.11 0.10 0.14 0.13 0.15 0.15 0.14 0.16 0.17 0.20
0.48 0.35 0.71 0.72 0.49 0.49 0.44 0.46 0.52 0.49 0.53 0.48 0.45 0.40 0.37 0.36 0.35 0.35 0.33 0.35 0.38 0.35 0.29 0.33 0.29 0.22 0.22 0.23 0.27 0.24 0.22 0.22 0.17 0.14 0.17 0.15 0.12 0.17 0.18 0.18 0.21 0.18 0.20 0.21 0.23
0.50 0.54 0.77 0.71 0.44 0.45 0.52 0.51 0.52 0.46 0.47 0.46 0.43 0.44 0.43 0.39 0.33 0.37 0.37 0.41 0.41 0.37 0.32 0.35 0.27 0.19 0.19 0.23 0.26 0.23 0.23 0.21 0.21 0.21 0.15 0.13 0.11 0.18 0.18 0.19 0.22 0.24 0.23 0.23 0.22
0.62 0.48 0.62 0.62 0.62 0.52 0.49 0.49 0.49 0.54 0.48 0.47 0.45 0.46 0.43 0.40 0.41 0.36 0.35 0.38 0.41 0.39 0.39 0.37 0.30 0.23 0.17 0.17 0.21 0.19 0.22 0.24 0.22 0.17 0.15 0.15 0.15 0.17 0.17 0.20 0.21 0.23 0.22 0.22 0.20
0.66 0.58 0.62 0.48 0.53 0.55 0.56 0.52 0.47 0.47 0.50 0.50 0.45 0.44 0.41 0.36 0.36 0.35 0.35 0.36 0.39 0.41 0.39 0.37 0.26 0.26 0.26 0.25 0.23 0.21 0.21 0.21 0.21 0.21 0.18 0.16 0.16 0.16 0.19 0.21 0.22 0.23 0.22 0.21 0.19
0.62 0.59 0.61 0.56 0.58 0.56 0.54 0.47 0.48 0.51 0.47 0.45 0.44 0.44 0.42 0.38 0.37 0.33 0.35 0.35 0.33 0.36 0.32 0.34 0.26 0.26 0.22 0.22 0.20 0.19 0.19 0.20 0.21 0.22 0.22 0.21 0.19 0.23 0.23 0.25 0.23 0.22 0.23 0.23 0.22
0.76 0.75 0.66 0.61 0.58 0.54 0.52 0.53 0.53 0.54 0.53 0.53 0.48 0.43 0.40 0.41 0.43 0.43 0.43 0.42 0.38 0.33 0.32 0.30 0.27 0.22 0.17 0.21 0.20 0.16 0.17 0.18 0.18 0.19 0.19 0.14 0.16 0.19 0.18 0.21 0.22 0.24 0.25 0.24 0.22
Wind_Speed
20 21 22 23 24 24 23 23 23 22 22 22 22 21 21 20 19 17 16 17 16 16 15 15 15 16 17 16 16 19 19 21 22 24 26 28 31 32 35 36 36 37 40 41 41
21 22 23 24 24 24 24 24 23 23 22 22 21 21 20 18 16 13 17 16 15 15 14 15 15 18 16 16 17 18 20 22 23 26 30 32 34 36 37 38 39 42 44 45 45
22 23 24 25 25 24 24 23 23 22 22 21 21 19 18 15 15 13 12 10 11 13 13 14 16 17 17 18 19 20 23 25 27 30 32 34 34 35 37 40 41 44 44 46 49
23 24 25 25 25 24 23 22 22 21 21 20 20 17 15 13 13 12 12 13 14 13 14 15 16 17 17 19 19 20 23 25 29 30 30 33 35 36 37 42 43 45 48 49 50
24 25 26 25 25 24 23 22 21 21 20 19 16 14 12 12 11 13 14 15 15 15 16 16 17 18 17 18 20 22 24 25 28 30 31 32 33 37 38 40 43 46 47 47 49
25 26 27 26 25 25 24 23 21 20 18 17 14 12 12 11 12 12 14 15 15 15 14 15 16 17 18 19 19 20 24 27 26 28 29 32 33 36 40 42 43 46 47 47 49
25 26 27 26 26 25 24 22 20 18 17 15 11 12 11 10 11 11 12 13 13 14 15 15 16 15 16 18 19 22 23 25 23 25 28 32 34 35 40 43 45 45 44 44 43
26 27 27 26 26 25 24 21 18 17 14 13 12 12 10 9 9 11 12 12 13 13 14 15 14 16 16 18 19 18 21 21 26 27 30 32 36 38 39 42 43 43 41 38 36
26 27 26 26 25 25 23 19 18 15 13 12 12 10 8 8 11 12 13 13 13 13 12 13 14 16 15 17 19 16 21 26 27 29 31 31 38 38 40 40 36 33 33 31 29
26 26 26 26 24 25 22 18 17 15 14 12 10 8 7 9 11 12 12 12 13 13 14 14 15 16 16 16 18 22 24 26 28 30 32 34 35 38 38 32 31 29 26 26 26
26 26 26 26 23 24 22 18 17 14 15 12 9 6 7 10 11 12 12 13 13 13 15 13 16 16 14 17 20 23 26 28 31 31 34 34 37 37 33 26 27 27 26 24 23
26 26 26 25 21 23 20 17 16 15 14 10 6 6 9 12 12 12 13 13 13 16 14 15 16 14 17 20 22 23 28 30 30 30 35 35 37 35 27 24 24 23 22 22 22
25 25 24 23 20 19 19 18 17 16 13 8 7 9 11 14 15 12 15 14 15 17 16 17 18 19 19 22 24 25 28 30 31 33 33 35 32 30 30 21 22 22 21 21 21
24 23 24 23 19 19 19 19 18 16 11 5 6 11 11 15 14 16 16 15 14 15 17 18 14 16 21 23 25 27 27 30 32 33 30 31 33 28 26 23 18 20 20 22 22
23 23 23 21 20 18 20 20 17 14 9 6 11 12 14 16 18 15 15 15 16 18 17 16 17 19 23 23 24 24 28 30 33 32 33 28 27 26 25 20 18 20 22 22 22
23 23 23 20 18 19 21 19 15 12 8 11 12 15 18 16 16 15 15 15 18 17 19 21 22 20 20 23 24 27 29 30 31 29 26 25 25 22 24 24 22 22 24 22 22
22 22 21 20 18 20 20 17 14 10 12 12 16 18 20 19 18 15 17 17 17 18 16 21 21 18 18 22 24 21 27 26 24 22 21 27 27 24 26 22 21 22 20 21 23
22 21 21 19 18 20 18 16 13 14 14 16 19 21 19 18 15 16 18 20 16 17 19 18 19 17 17 20 23 26 23 20 23 23 30 30 22 21 25 19 22 18 19 22 25
21 20 20 18 20 19 17 15 14 15 17 20 23 16 17 15 16 17 18 19 15 15 16 19 19 18 21 24 22 22 23 23 27 28 28 22 23 24 21 16 21 21 23 25 26
22 21 19 19 20 18 16 15 15 17 19 18 18 16 18 18 17 16 18 17 15 16 17 20 23 24 21 22 24 22 23 22 22 22 22 22 27 25 21 26 25 25 25 27 26
21 20 19 20 19 18 15 15 17 17 18 17 19 20 20 20 17 18 18 19 17 17 17 20 20 20 25 22 23 21 22 22 23 22 23 26 21 23 30 27 25 26 24 24 24
22 20 20 21 18 18 17 17 18 18 18 19 19 20 20 23 19 18 18 17 17 20 20 20 22 23 27 29 25 23 23 22 22 25 23 26 32 29 26 26 26 26 24 22 22
22 21 20 18 17 18 16 19 20 19 20 18 20 20 21 21 21 20 21 18 20 19 20 20 21 24 25 21 22 23 24 23 24 25 30 28 28 31 28 28 26 27 25 22 22
22 21 20 20 19 17 19 20 20 20 21 21 22 22 23 22 22 21 21 21 20 21 23 21 23 23 25 26 28 30 28 27 27 27 31 30 36 32 32 31 32 30 24 22 22
23 23 22 21 21 20 20 20 22 22 20 21 22 23 21 21 21 22 24 24 23 23 23 22 25 27 29 32 33 35 34 32 29 30 29 34 33 32 30 29 29 23 21 21 21
25 24 25 25 24 23 22 23 23 22 20 22 22 23 22 23 23 26 27 26 26 23 23 24 29 29 31 32 35 36 35 34 31 31 30 32 33 31 30 28 27 23 21 20 20
29 28 27 26 25 24 25 24 24 23 23 24 24 24 23 25 25 26 27 27 27 25 23 24 25 26 32 30 32 32 29 27 26 25 22 24 26 27 26 24 23 22 21 19 20
Wind_Direction
330 327 324 322 321 318 316 314 312 310 308 306 304 302 300 297 293 289 291 289 288 284 285 286 287 290 287 284 282 285 283 285 285 289 293 297 296 293 291 289 288 285 284 282 280
336 334 329 326 323 320 317 313 311 309 308 307 305 303 299 297 291 296 298 289 288 285 280 286 290 294 287 284 285 282 284 285 295 296 295 297 295 295 294 292 290 287 283 282 280
337 336 333 331 328 324 321 318 314 312 309 307 305 302 298 294 287 292 304 296 295 288 289 287 290 291 287 289 288 286 282 289 293 296 297 296 296 297 295 292 290 289 287 285 281
338 336 334 331 330 327 324 321 317 315 312 310 307 300 297 287 291 286 290 296 296 293 289 290 291 289 291 289 289 290 289 292 295 297 298 296 297 297 294 293 293 290 288 285 281
338 337 336 333 331 329 326 322 319 316 315 313 309 302 296 289 296 284 288 294 294 292 291 291 290 292 288 292 292 286 291 296 298 298 297 296 297 299 298 298 297 295 291 288 287
338 337 336 334 332 330 327 322 319 317 317 315 306 302 298 288 293 292 292 296 296 295 294 294 294 296 294 293 291 299 302 301 299 297 297 300 305 306 303 302 300 299 295 291 287
337 336 335 334 333 331 330 326 321 318 317 318 311 302 315 298 296 299 298 301 299 299 297 299 297 295 302 296 299 298 300 301 303 312 309 311 309 308 308 307 304 301 298 292 287
339 337 335 334 333 332 331 329 326 321 317 316 313 307 308 299 303 306 303 304 304 303 302 301 300 298 300 301 300 298 294 306 314 313 313 312 309 312 312 310 307 304 301 297 291
340 338 337 335 334 333 332 330 330 328 323 316 314 308 308 303 306 310 307 303 304 304 303 305 303 302 299 301 306 298 308 314 314 315 314 316 313 315 315 313 315 314 311 307 298
340 339 338 336 336 336 333 329 328 325 322 321 313 305 302 320 315 314 312 305 302 305 298 303 304 301 298 304 308 310 311 312 313 314 318 315 313 316 315 317 317 318 321 315 307
337 338 338 337 335 338 336 329 327 321 327 320 315 309 320 323 320 316 312 309 306 303 302 299 306 298 311 309 307 310 309 309 309 317 315 316 316 314 314 315 319 318 318 318 313
334 336 336 337 336 340 340 340 337 325 322 316 304 307 317 324 319 318 318 310 304 302 307 301 297 317 311 309 308 309 308 311 314 318 319 318 313 309 313 309 315 316 316 316 315
331 333 335 336 335 339 348 344 336 332 321 311 300 307 316 319 319 318 316 314 305 304 300 301 302 307 307 310 309 311 311 315 318 318 315 315 315 317 310 300 308 317 312 313 314
326 329 332 332 330 334 339 338 335 334 327 325 311 318 311 320 315 316 314 312 308 307 313 303 312 311 309 308 310 312 316 319 318 318 318 320 314 313 308 306 305 311 311 309 311
319 324 326 330 325 330 332 333 332 333 336 330 326 324 319 317 320 315 314 308 305 307 311 307 308 309 310 311 316 313 318 316 313 310 312 313 311 315 310 310 312 311 309 309 309
312 318 322 322 322 324 327 329 329 330 330 323 326 322 317 307 314 318 312 309 308 309 301 296 302 308 310 315 314 312 315 313 310 310 309 313 309 316 314 309 306 306 306 309 308
308 312 316 317 316 321 324 322 327 332 316 322 322 319 318 310 310 310 310 305 307 311 316 318 304 301 315 315 319 312 320 323 324 325 314 323 318 309 312 313 310 307 308 311 311
307 306 311 312 313 318 319 318 324 311 325 319 318 316 313 322 312 312 310 306 302 307 312 316 317 314 316 316 319 316 314 316 317 320 315 319 311 315 312 305 306 311 313 313 314
309 303 306 307 311 313 314 319 313 318 315 320 317 315 320 319 312 316 309 305 311 308 308 315 310 317 312 311 316 319 317 314 310 307 310 310 307 314 329 327 321 315 314 312 314
305 303 301 303 309 307 311 307 311 313 314 314 315 319 320 327 317 318 314 321 313 311 312 312 311 308 313 317 308 302 311 319 317 316 316 315 316 308 323 320 311 310 309 310 311
300 301 300 302 304 302 302 306 308 312 313 312 311 312 311 313 315 315 309 310 313 310 311 312 306 313 317 310 309 311 312 308 310 307 310 313 312 316 315 316 315 309 314 311 311
295 297 298 300 300 298 298 304 307 306 307 307 309 307 307 308 306 306 305 306 314 312 307 307 309 308 305 304 310 311 309 310 306 306 303 304 303 303 306 310 310 306 312 309 310
290 293 295 294 295 293 295 300 302 301 302 304 305 303 310 309 307 301 303 307 309 307 308 311 308 314 316 321 319 314 311 306 303 303 295 297 300 309 307 305 311 313 309 308 309
287 290 291 293 291 291 297 298 298 298 302 300 302 303 305 304 298 303 302 305 304 301 297 304 301 297 300 303 309 307 305 302 298 297 300 294 300 305 304 307 309 301 302 305 308
280 283 286 286 284 288 290 296 298 299 297 301 304 297 300 303 301 297 296 301 300 300 298 301 301 297 298 301 302 302 301 296 292 290 290 298 299 303 303 305 307 302 300 301 305
276 280 283 283 282 282 281 286 288 293 295 296 295 302 296 291 292 298 301 301 297 301 300 298 298 302 302 304 303 301 299 296 293 291 290 292 295 300 304 303 304 297 300 300 302
272 276 281 279 278 279 280 283 286 288 288 291 297 298 295 296 299 302 302 300 298 300 300 301 304 307 302 306 309 308 303 298 300 298 299 303 305 309 305 303 300 302 298 297 300